Location: Biberach+an+der+Riss
(48.0937°N, 9.7888°E)
Time: 17:59:21
(UTC+02:00)

ISS - Pass Details

Date: 08 January 2018
Orbit: 401 x 409 km, 51.6° (Epoch: 19 August)

Event Time Altitude Azimuth Distance (km) Brightness Sun altitude
Exits shadow 05:21:50 20° 62° (ENE) 1,030 -1.2 -27.2°
Drops below altitude 10° 05:23:08 10° 73° (ENE) 1,512 -0.1 -26.9°
Enters shadow 06:18:40 -70° 277° (W) 12,437 3.7 -17.8°
Maximum altitude 06:56:52 70° 18° (NNE) 454 -3.6 -11.7°
